RYR6ZK EPKK-EGSS

Flight info

Callsign RYR6ZK
Flight time N/A
Altitude 38000
Route OMFOL T738 EKSEK DCT NAROX DCT KUMER DCT NOGRO M40 RINIS
Aircraft B738/M-SDE2E3FGHIRWXY/LB1

Departure

Time 2026-04-30 07:39
Airport Kraków John Paul II International Airport (EPKK)

Arrival

Time N/A
Airport London Stansted Airport (EGSS)
Time Latitude Longitude Altitude Speed Heading
2026-04-30 07:07 50.07538 19.79832 799 ft 0 kts 77°
2026-04-30 07:31 50.07536 19.79822 799 ft 4 kts 77°
2026-04-30 07:31 50.07530 19.79782 799 ft 4 kts 66°
2026-04-30 07:31 50.07515 19.79753 799 ft 4 kts 19°
2026-04-30 07:31 50.07493 19.79751 799 ft 1 kts 348°
2026-04-30 07:32 50.07489 19.79752 799 ft 0 kts 348°
2026-04-30 07:34 50.07504 19.79747 799 ft 7 kts 348°
2026-04-30 07:34 50.07591 19.79719 799 ft 18 kts 348°
2026-04-30 07:35 50.07694 19.79752 799 ft 13 kts 65°
2026-04-30 07:35 50.07709 19.79842 799 ft 13 kts 76°
2026-04-30 07:35 50.07727 19.79974 799 ft 13 kts 79°
2026-04-30 07:35 50.07747 19.80128 799 ft 17 kts 78°
2026-04-30 07:36 50.07779 19.80320 799 ft 15 kts 57°
2026-04-30 07:36 50.07835 19.80339 799 ft 7 kts 345°
2026-04-30 07:36 50.07840 19.80337 799 ft 0 kts 346°
2026-04-30 07:37 50.07849 19.80334 799 ft 4 kts 346°
2026-04-30 07:38 50.07927 19.80304 799 ft 19 kts 347°
2026-04-30 07:38 50.08008 19.80176 799 ft 19 kts 257°
2026-04-30 07:38 50.07967 19.79879 799 ft 57 kts 258°
2026-04-30 07:38 50.07828 19.78886 801 ft 128 kts 258°
2026-04-30 07:39 50.07610 19.77256 1009 ft 167 kts 258°
2026-04-30 07:39 50.07380 19.75547 1983 ft 163 kts 258°
2026-04-30 07:39 50.07134 19.73817 2783 ft 169 kts 259°
2026-04-30 07:39 50.06858 19.71854 3197 ft 202 kts 258°
2026-04-30 07:40 50.06536 19.69589 3496 ft 226 kts 259°
2026-04-30 07:40 50.06193 19.67124 4075 ft 237 kts 259°
2026-04-30 07:40 50.05827 19.64513 4475 ft 257 kts 258°
2026-04-30 07:40 50.05434 19.61745 5277 ft 264 kts 259°
2026-04-30 07:41 50.05035 19.58943 6161 ft 268 kts 260°
2026-04-30 07:41 50.04627 19.56067 6965 ft 276 kts 260°
2026-04-30 07:41 50.04210 19.53120 7734 ft 282 kts 260°
2026-04-30 07:41 50.03782 19.50115 8502 ft 287 kts 261°
2026-04-30 07:42 50.03347 19.47058 9310 ft 292 kts 261°
2026-04-30 07:42 50.02903 19.43940 10094 ft 297 kts 262°
2026-04-30 07:42 50.02845 19.40750 10749 ft 298 kts 285°
2026-04-30 07:42 50.03520 19.37609 10993 ft 317 kts 297°
2026-04-30 07:43 50.04420 19.34392 11415 ft 330 kts 298°
2026-04-30 07:43 50.05369 19.31102 12140 ft 335 kts 298°
2026-04-30 07:43 50.06322 19.27786 12975 ft 337 kts 298°
2026-04-30 07:43 50.07277 19.24430 13775 ft 341 kts 298°
2026-04-30 07:44 50.08234 19.21023 14536 ft 346 kts 298°
2026-04-30 07:44 50.09198 19.17566 15264 ft 350 kts 298°
2026-04-30 07:44 50.10168 19.14065 16007 ft 354 kts 298°
2026-04-30 07:44 50.11147 19.10521 16749 ft 358 kts 298°
2026-04-30 07:45 50.12135 19.06931 17486 ft 363 kts 298°
2026-04-30 07:45 50.13121 19.03344 18214 ft 367 kts 298°
2026-04-30 07:45 50.14131 18.99662 18907 ft 371 kts 298°
2026-04-30 07:45 50.15150 18.95940 19539 ft 375 kts 298°
2026-04-30 07:46 50.16179 18.92176 20175 ft 379 kts 298°
2026-04-30 07:46 50.17216 18.88380 20800 ft 383 kts 298°
2026-04-30 07:46 50.18263 18.84541 21408 ft 387 kts 298°
2026-04-30 07:46 50.19318 18.80665 22021 ft 390 kts 299°
2026-04-30 07:47 50.20385 18.76737 22619 ft 394 kts 299°
2026-04-30 07:47 50.21459 18.72779 23198 ft 398 kts 299°
2026-04-30 07:47 50.22544 18.68775 23758 ft 402 kts 299°
2026-04-30 07:47 50.23633 18.64730 24270 ft 406 kts 299°
2026-04-30 07:48 50.24713 18.60631 24746 ft 410 kts 298°
2026-04-30 07:48 50.25791 18.56501 25219 ft 412 kts 298°
2026-04-30 07:48 50.26877 18.52333 25691 ft 415 kts 299°
2026-04-30 07:48 50.27972 18.48136 26129 ft 419 kts 299°
2026-04-30 07:49 50.29076 18.43907 26562 ft 422 kts 299°
2026-04-30 07:49 50.30190 18.39643 26998 ft 425 kts 300°
2026-04-30 07:49 50.31313 18.35348 27421 ft 428 kts 300°
2026-04-30 07:49 50.32442 18.31023 27837 ft 431 kts 300°
2026-04-30 07:50 50.33577 18.26668 28247 ft 434 kts 300°
2026-04-30 07:50 50.34718 18.22280 28645 ft 437 kts 300°
2026-04-30 07:50 50.35864 18.17862 29037 ft 440 kts 300°
2026-04-30 07:50 50.37017 18.13406 29421 ft 443 kts 300°
2026-04-30 07:51 50.38177 18.08916 29790 ft 446 kts 300°
2026-04-30 07:51 50.39340 18.04401 30156 ft 448 kts 301°
2026-04-30 07:51 50.40509 17.99856 30505 ft 451 kts 301°
2026-04-30 07:51 50.41683 17.95277 30793 ft 454 kts 301°
2026-04-30 07:52 50.42863 17.90671 31082 ft 456 kts 301°
2026-04-30 07:52 50.44047 17.86040 31359 ft 459 kts 301°
2026-04-30 07:52 50.45235 17.81387 31648 ft 460 kts 301°
2026-04-30 07:52 50.46481 17.76778 32000 ft 458 kts 303°
2026-04-30 07:53 50.47790 17.72231 32399 ft 455 kts 304°
2026-04-30 07:53 50.49116 17.67723 32793 ft 454 kts 304°
2026-04-30 07:53 50.50441 17.63219 33145 ft 454 kts 304°
2026-04-30 07:53 50.51758 17.58710 33492 ft 455 kts 304°
2026-04-30 07:54 50.53051 17.54240 33839 ft 455 kts 304°
2026-04-30 07:54 50.54349 17.49715 34203 ft 454 kts 304°
2026-04-30 07:54 50.55642 17.45182 34549 ft 454 kts 304°
2026-04-30 07:54 50.56929 17.40654 34850 ft 454 kts 303°
2026-04-30 07:55 50.58212 17.36129 35154 ft 452 kts 303°
2026-04-30 07:55 50.59491 17.31609 35483 ft 451 kts 303°
2026-04-30 07:55 50.60764 17.27105 35782 ft 450 kts 302°
2026-04-30 07:55 50.62034 17.22606 36065 ft 450 kts 302°
2026-04-30 07:56 50.63301 17.18111 36377 ft 448 kts 302°
2026-04-30 07:56 50.64564 17.13622 36678 ft 447 kts 302°
2026-04-30 07:56 50.65822 17.09143 36968 ft 446 kts 301°
2026-04-30 07:56 50.67075 17.04671 37258 ft 445 kts 301°
2026-04-30 07:57 50.68324 17.00211 37526 ft 445 kts 301°
2026-04-30 07:57 50.69568 16.95754 37820 ft 444 kts 301°
2026-04-30 07:57 50.70802 16.91302 38110 ft 443 kts 300°
2026-04-30 07:57 50.72018 16.86842 38383 ft 442 kts 300°
2026-04-30 07:58 50.73227 16.82376 38494 ft 444 kts 300°
2026-04-30 07:58 50.75654 16.73381 38490 ft 444 kts 300°
2026-04-30 07:59 50.78054 16.64449 38488 ft 440 kts 300°
2026-04-30 07:59 50.80433 16.55585 38490 ft 437 kts 300°
2026-04-30 08:00 50.83969 16.42361 38500 ft 435 kts 300°
2026-04-30 08:00 50.86318 16.33535 38498 ft 436 kts 300°
2026-04-30 08:01 50.88668 16.24666 38511 ft 438 kts 300°
2026-04-30 08:01 50.91025 16.15738 38494 ft 440 kts 300°
2026-04-30 08:02 50.95168 16.02897 38507 ft 432 kts 311°
2026-04-30 08:03 51.01950 15.87104 38494 ft 436 kts 311°
2026-04-30 08:04 51.05319 15.79070 38495 ft 437 kts 310°
2026-04-30 08:04 51.08680 15.71011 38496 ft 437 kts 310°
2026-04-30 08:05 51.11940 15.62838 38485 ft 442 kts 303°
2026-04-30 08:05 51.13916 15.53454 38506 ft 454 kts 288°
2026-04-30 08:06 51.15099 15.43568 38499 ft 454 kts 287°
2026-04-30 08:06 51.16270 15.33696 38491 ft 453 kts 288°
2026-04-30 08:07 51.17485 15.23868 38492 ft 451 kts 288°
2026-04-30 08:07 51.18705 15.14062 38497 ft 450 kts 288°
2026-04-30 08:08 51.19913 15.04268 38495 ft 450 kts 288°
2026-04-30 08:08 51.21025 14.94440 38496 ft 452 kts 285°
2026-04-30 08:09 51.21938 14.84516 38501 ft 452 kts 285°
2026-04-30 08:09 51.22828 14.74583 38488 ft 452 kts 285°
2026-04-30 08:10 51.23734 14.64651 38500 ft 452 kts 285°
2026-04-30 08:10 51.24646 14.54719 38498 ft 452 kts 285°
2026-04-30 08:11 51.25549 14.44838 38497 ft 453 kts 285°
2026-04-30 08:11 51.26450 14.34891 38496 ft 453 kts 285°
2026-04-30 08:12 51.27342 14.24919 38500 ft 454 kts 285°
2026-04-30 08:12 51.28227 14.14939 38494 ft 454 kts 285°
2026-04-30 08:13 51.29104 14.04948 38493 ft 454 kts 284°
2026-04-30 08:13 51.29971 13.94954 38494 ft 454 kts 284°
2026-04-30 08:14 51.30830 13.84964 38503 ft 454 kts 284°
2026-04-30 08:14 51.31679 13.74980 38500 ft 453 kts 284°
2026-04-30 08:15 51.32520 13.64997 38500 ft 452 kts 284°
2026-04-30 08:15 51.33350 13.55035 38508 ft 452 kts 284°
2026-04-30 08:16 51.34171 13.45082 38508 ft 452 kts 284°
2026-04-30 08:16 51.34984 13.35120 38509 ft 451 kts 284°
2026-04-30 08:17 51.35786 13.25179 38508 ft 451 kts 284°
2026-04-30 08:17 51.36580 13.15239 38515 ft 450 kts 284°
2026-04-30 08:18 51.37365 13.05300 38509 ft 450 kts 283°
2026-04-30 08:18 51.38142 12.95350 38511 ft 450 kts 283°
2026-04-30 08:19 51.38909 12.85408 38516 ft 450 kts 283°
2026-04-30 08:19 51.39669 12.75464 38515 ft 450 kts 283°
2026-04-30 08:20 51.40419 12.65516 38521 ft 450 kts 283°
2026-04-30 08:20 51.41162 12.55564 38530 ft 450 kts 283°
2026-04-30 08:21 51.41896 12.45600 38532 ft 450 kts 283°
2026-04-30 08:21 51.42622 12.35636 38535 ft 450 kts 283°
2026-04-30 08:22 51.43340 12.25670 38532 ft 450 kts 282°
2026-04-30 08:22 51.44045 12.15755 38531 ft 450 kts 282°
2026-04-30 08:23 51.44746 12.05780 38534 ft 450 kts 282°
2026-04-30 08:23 51.45438 11.95803 38529 ft 450 kts 282°
2026-04-30 08:24 51.46121 11.85825 38531 ft 450 kts 282°
2026-04-30 08:24 51.46687 11.77464 38522 ft 450 kts 282°
2026-04-30 08:25 51.47355 11.67480 38519 ft 450 kts 281°
2026-04-30 08:25 51.48015 11.57495 38526 ft 450 kts 281°
2026-04-30 08:26 51.48662 11.47573 38507 ft 450 kts 281°
2026-04-30 08:26 51.49304 11.37587 38516 ft 450 kts 281°
2026-04-30 08:27 51.49937 11.27606 38515 ft 449 kts 281°
2026-04-30 08:27 51.50562 11.17625 38508 ft 449 kts 281°
2026-04-30 08:28 51.51177 11.07650 38504 ft 449 kts 281°
2026-04-30 08:28 51.51783 10.97691 38505 ft 448 kts 281°
2026-04-30 08:29 51.52381 10.87730 38513 ft 448 kts 280°
2026-04-30 08:29 51.52971 10.77769 38513 ft 448 kts 280°
2026-04-30 08:30 51.53554 10.67791 38501 ft 449 kts 280°
2026-04-30 08:30 51.54202 10.57838 38505 ft 447 kts 282°
2026-04-30 08:31 51.55098 10.47963 38500 ft 447 kts 283°
2026-04-30 08:31 51.56024 10.38074 38511 ft 447 kts 283°
2026-04-30 08:32 51.56913 10.28179 38495 ft 448 kts 282°
2026-04-30 08:32 51.57774 10.18263 38491 ft 448 kts 282°
2026-04-30 08:33 51.58621 10.08334 38502 ft 448 kts 282°
2026-04-30 08:33 51.59459 9.98410 38494 ft 448 kts 282°
2026-04-30 08:34 51.60289 9.88471 38494 ft 448 kts 282°
2026-04-30 08:34 51.61106 9.78606 38496 ft 448 kts 282°
2026-04-30 08:35 51.61918 9.68679 38487 ft 447 kts 282°
2026-04-30 08:35 51.62723 9.58752 38490 ft 447 kts 281°
2026-04-30 08:36 51.63518 9.48838 38489 ft 446 kts 281°
2026-04-30 08:36 51.64302 9.38938 38482 ft 446 kts 281°
2026-04-30 08:37 51.65079 9.29031 38487 ft 446 kts 281°
2026-04-30 08:37 51.65848 9.19119 38483 ft 446 kts 281°
2026-04-30 08:38 51.66608 9.09209 38485 ft 446 kts 281°
2026-04-30 08:38 51.67359 8.99297 38481 ft 446 kts 281°
2026-04-30 08:39 51.68102 8.89390 38480 ft 446 kts 281°
2026-04-30 08:39 51.68837 8.79468 38478 ft 446 kts 280°
2026-04-30 08:40 51.69564 8.69543 38481 ft 446 kts 280°
2026-04-30 08:40 51.70282 8.59619 38478 ft 446 kts 280°
2026-04-30 08:41 51.70992 8.49685 38481 ft 446 kts 280°
2026-04-30 08:41 51.71693 8.39751 38477 ft 446 kts 280°
2026-04-30 08:42 51.72376 8.29964 38478 ft 446 kts 279°
2026-04-30 08:42 51.73061 8.20015 38471 ft 446 kts 279°
2026-04-30 08:43 51.73739 8.10057 38465 ft 447 kts 279°
2026-04-30 08:43 51.74404 8.00159 38466 ft 447 kts 279°
2026-04-30 08:44 51.75066 7.90177 38461 ft 447 kts 279°
2026-04-30 08:44 51.75720 7.80184 38458 ft 448 kts 279°
2026-04-30 08:45 51.76365 7.70186 38456 ft 448 kts 279°
2026-04-30 08:45 51.77003 7.60169 38463 ft 449 kts 279°
2026-04-30 08:46 51.77634 7.50138 38453 ft 449 kts 278°
2026-04-30 08:46 51.78256 7.40096 38456 ft 450 kts 278°
2026-04-30 08:47 51.78871 7.30034 38453 ft 450 kts 278°
2026-04-30 08:47 51.79477 7.19973 38456 ft 450 kts 278°
2026-04-30 08:48 51.80075 7.09890 38452 ft 451 kts 278°
2026-04-30 08:48 51.80666 6.99802 38455 ft 452 kts 278°
2026-04-30 08:49 51.81248 6.89692 38447 ft 452 kts 278°
2026-04-30 08:49 51.81822 6.79567 38446 ft 452 kts 277°
2026-04-30 08:50 51.82388 6.69439 38447 ft 453 kts 277°
2026-04-30 08:50 51.82946 6.59297 38440 ft 453 kts 277°